�������l�o���
Date,Time,MP-1(��Sv/h),MP-2(��Sv/h),MP-3(��Sv/h),MP-4(��Sv/h),MP-5(��Sv/h),MP-6(��Sv/h),MP-7(��Sv/h),MP-8(��Sv/h),����,����(m/s),���J
2023/12/17,00:00,0.507,0.764,0.480,0.955,0.690,0.314,0.557,0.525,��,10.8,��
2023/12/17,00:10,0.506,0.764,0.481,0.958,0.688,0.312,0.558,0.525,��,10.2,��
2023/12/17,00:20,0.508,0.765,0.480,0.958,0.691,0.314,0.558,0.526,��,12.0,��
2023/12/17,00:30,0.505,0.762,0.481,0.957,0.690,0.313,0.558,0.524,���k��,13.9,��
2023/12/17,00:40,0.508,0.765,0.480,0.958,0.689,0.314,0.558,0.526,��,12.4,��
2023/12/17,00:50,0.506,0.764,0.479,0.958,0.688,0.313,0.557,0.526,��,11.6,��
2023/12/17,01:00,0.506,0.765,0.480,0.957,0.689,0.312,0.557,0.525,��,11.3,��
2023/12/17,01:10,0.508,0.764,0.482,0.958,0.689,0.313,0.558,0.525,���k��,10.7,��
2023/12/17,01:20,0.507,0.764,0.482,0.959,0.688,0.313,0.558,0.524,��,11.0,��
2023/12/17,01:30,0.508,0.766,0.482,0.959,0.688,0.313,0.557,0.526,���k��,12.1,��
2023/12/17,01:40,0.507,0.765,0.481,0.959,0.689,0.313,0.558,0.526,���k��,13.0,��
2023/12/17,01:50,0.507,0.765,0.481,0.958,0.690,0.314,0.559,0.527,��,13.8,��
2023/12/17,02:00,0.507,0.764,0.483,0.957,0.689,0.313,0.558,0.528,��,13.6,��
2023/12/17,02:10,0.508,0.766,0.482,0.958,0.687,0.313,0.557,0.526,��,10.5,��
2023/12/17,02:20,0.507,0.765,0.480,0.962,0.689,0.314,0.559,0.528,��,12.2,��
2023/12/17,02:30,0.505,0.765,0.483,0.958,0.689,0.315,0.560,0.528,��,10.5,��
2023/12/17,02:40,0.508,0.764,0.481,0.959,0.689,0.314,0.557,0.528,��,11.9,��
2023/12/17,02:50,0.508,0.763,0.480,0.960,0.688,0.312,0.559,0.527,��,9.0,��
2023/12/17,03:00,0.508,0.765,0.480,0.962,0.691,0.313,0.558,0.527,��,9.2,��
2023/12/17,03:10,0.507,0.764,0.481,0.959,0.690,0.314,0.558,0.528,��,10.2,��
2023/12/17,03:20,0.507,0.766,0.480,0.960,0.689,0.313,0.558,0.529,��,11.4,��
2023/12/17,03:30,0.507,0.766,0.483,0.960,0.689,0.313,0.558,0.530,��,13.0,��
2023/12/17,03:40,0.507,0.766,0.482,0.960,0.691,0.313,0.559,0.530,���k��,15.5,��
2023/12/17,03:50,0.508,0.764,0.481,0.958,0.687,0.313,0.559,0.529,��,12.4,��
2023/12/17,04:00,0.508,0.767,0.482,0.960,0.690,0.314,0.560,0.528,��,11.3,��
2023/12/17,04:10,0.508,0.767,0.482,0.960,0.690,0.313,0.559,0.528,-,CALM,��
2023/12/17,04:20,0.508,0.766,0.481,0.961,0.690,0.313,0.560,0.530,��,8.6,��
2023/12/17,04:30,0.508,0.766,0.481,0.961,0.691,0.313,0.558,0.530,���k��,14.7,��
2023/12/17,04:40,0.507,0.767,0.488,0.963,0.690,0.313,0.559,0.530,��,13.8,��
2023/12/17,04:50,0.507,0.766,0.482,0.963,0.691,0.313,0.559,0.529,��,14.6,��
2023/12/17,05:00,0.507,0.767,0.482,0.964,0.690,0.313,0.560,0.529,��,11.8,��
2023/12/17,05:10,0.508,0.764,0.481,0.962,0.689,0.314,0.561,0.530,��,13.3,��
2023/12/17,05:20,0.507,0.766,0.480,0.961,0.690,0.314,0.559,0.530,��,10.8,��
2023/12/17,05:30,0.506,0.766,0.482,0.963,0.689,0.312,0.560,0.529,��,12.7,��
2023/12/17,05:40,0.508,0.766,0.482,0.963,0.689,0.313,0.560,0.528,��,15.0,��
2023/12/17,05:50,0.506,0.768,0.481,0.964,0.690,0.312,0.561,0.529,��,13.0,��
2023/12/17,06:00,0.508,0.768,0.482,0.964,0.692,0.313,0.560,0.528,���k��,15.8,��
2023/12/17,06:10,0.507,0.767,0.481,0.962,0.692,0.314,0.560,0.528,��,11.8,��
2023/12/17,06:20,0.506,0.766,0.481,0.963,0.693,0.312,0.560,0.528,��,15.0,��
2023/12/17,06:30,0.508,0.766,0.482,0.964,0.691,0.313,0.559,0.529,��,12.0,��
2023/12/17,06:40,0.507,0.768,0.481,0.962,0.693,0.314,0.558,0.529,��,11.1,��
2023/12/17,06:50,0.509,0.765,0.481,0.963,0.690,0.313,0.560,0.528,��,9.7,��
2023/12/17,07:00,0.507,0.768,0.481,0.964,0.691,0.313,0.562,0.528,��,14.1,��
2023/12/17,07:10,0.508,0.768,0.481,0.965,0.692,0.312,0.560,0.529,��,15.2,��
2023/12/17,07:20,0.508,0.769,0.481,0.963,0.692,0.312,0.560,0.528,��,17.2,��
2023/12/17,07:30,0.507,0.767,0.481,0.962,0.691,0.312,0.560,0.528,��,14.1,��
2023/12/17,07:40,0.509,0.768,0.481,0.963,0.690,0.313,0.558,0.528,��,12.4,��
2023/12/17,07:50,0.508,0.769,0.481,0.964,0.691,0.313,0.560,0.528,��,13.5,��
2023/12/17,08:00,0.508,0.769,0.482,0.963,0.692,0.312,0.561,0.527,��,10.5,��
2023/12/17,08:10,0.508,0.769,0.483,0.964,0.691,0.311,0.560,0.528,��,10.7,��
2023/12/17,08:20,0.508,0.768,0.482,0.964,0.691,0.312,0.559,0.526,��,11.3,��
2023/12/17,08:30,0.507,0.769,0.481,0.964,0.692,0.312,0.559,0.526,���쐼,9.0,�L
2023/12/17,08:40,0.506,0.767,0.481,0.964,0.693,0.313,0.561,0.525,���쐼,10.6,��
2023/12/17,08:50,0.508,0.769,0.481,0.964,0.690,0.311,0.559,0.527,���쐼,9.3,��
2023/12/17,09:00,0.509,0.767,0.482,0.966,0.691,0.312,0.559,0.527,���쐼,8.6,��
2023/12/17,09:10,0.508,0.769,0.481,0.963,0.691,0.312,0.559,0.527,��,8.5,��
2023/12/17,09:20,0.508,0.771,0.483,0.966,0.692,0.312,0.559,0.525,��,7.5,��
2023/12/17,09:30,0.509,0.769,0.482,0.963,0.691,0.312,0.560,0.527,���쐼,8.3,��
2023/12/17,09:40,0.508,0.769,0.483,0.964,0.690,0.312,0.559,0.526,���쐼,6.6,�L
2023/12/17,09:50,0.511,0.769,0.483,0.965,0.692,0.312,0.559,0.526,���쐼,8.7,�L
2023/12/17,10:00,0.509,0.769,0.482,0.962,0.692,0.313,0.558,0.524,���쐼,7.8,�L
2023/12/17,10:10,0.508,0.768,0.482,0.965,0.692,0.312,0.558,0.527,��,11.0,�L
2023/12/17,10:20,0.509,0.768,0.484,0.965,0.696,0.311,0.558,0.525,���쐼,7.4,��
2023/12/17,10:30,0.509,0.768,0.483,0.966,0.693,0.313,0.559,0.525,���쐼,7.9,��
2023/12/17,10:40,0.509,0.769,0.484,0.965,0.691,0.313,0.558,0.523,�쐼,7.6,��
2023/12/17,10:50,0.509,0.770,0.482,0.966,0.694,0.313,0.557,0.526,���쐼,8.5,��
2023/12/17,11:00,0.509,0.769,0.482,0.964,0.692,0.312,0.558,0.526,��,7.4,�L
2023/12/17,11:10,0.509,0.769,0.484,0.965,0.692,0.313,0.558,0.525,��,9.0,�L
2023/12/17,11:20,0.508,0.768,0.482,0.966,0.695,0.313,0.558,0.525,��,5.4,�L
2023/12/17,11:30,0.510,0.768,0.483,0.967,0.695,0.313,0.558,0.526,��,6.3,�L
2023/12/17,11:40,0.510,0.769,0.483,0.965,0.697,0.312,0.559,0.527,��,8.7,��
2023/12/17,11:50,0.510,0.770,0.482,0.964,0.695,0.313,0.559,0.526,���쐼,6.8,��
2023/12/17,12:00,0.510,0.771,0.484,0.967,0.695,0.312,0.562,0.524,��,8.4,��
2023/12/17,12:10,0.511,0.771,0.484,0.965,0.694,0.313,0.560,0.526,��,9.4,�L
2023/12/17,12:20,0.510,0.772,0.484,0.964,0.694,0.312,0.559,0.525,��,8.4,�L
2023/12/17,12:30,0.511,0.771,0.483,0.966,0.695,0.313,0.561,0.526,��,7.0,��
2023/12/17,12:40,0.511,0.772,0.482,0.968,0.694,0.311,0.560,0.526,��,8.4,��
2023/12/17,12:50,0.511,0.772,0.484,0.966,0.695,0.313,0.561,0.526,��,6.2,��
2023/12/17,13:00,0.509,0.772,0.483,0.966,0.696,0.314,0.560,0.525,��,6.2,��
2023/12/17,13:10,0.511,0.768,0.482,0.966,0.694,0.313,0.562,0.526,��,6.5,��
2023/12/17,13:20,0.510,0.769,0.486,0.968,0.695,0.313,0.561,0.526,��,8.9,��
2023/12/17,13:30,0.510,0.770,0.482,0.969,0.696,0.312,0.562,0.524,��,6.6,��
2023/12/17,13:40,0.510,0.770,0.482,0.966,0.695,0.313,0.562,0.523,��,7.7,��
2023/12/17,13:50,0.510,0.770,0.483,0.967,0.695,0.313,0.562,0.523,��,5.7,��
2023/12/17,14:00,0.510,0.768,0.481,0.967,0.694,0.313,0.562,0.525,��,5.3,��
2023/12/17,14:10,0.511,0.770,0.484,0.967,0.695,0.312,0.561,0.524,���쐼,7.5,�L
2023/12/17,14:20,0.508,0.769,0.484,0.968,0.694,0.313,0.561,0.523,��,7.5,��
2023/12/17,14:30,0.509,0.769,0.483,0.971,0.697,0.312,0.559,0.525,�k��,4.5,��
2023/12/17,14:40,0.509,0.769,0.484,0.967,0.694,0.313,0.560,0.526,�k�k��,4.5,�L
2023/12/17,14:50,0.510,0.768,0.482,0.967,0.697,0.312,0.560,0.526,���k��,1.5,�L
2023/12/17,15:00,0.509,0.771,0.482,0.967,0.695,0.312,0.561,0.527,�k�k��,2.6,�L
2023/12/17,15:10,0.510,0.771,0.482,0.966,0.696,0.311,0.560,0.526,�k,4.9,�L
2023/12/17,15:20,0.510,0.772,0.483,0.968,0.697,0.313,0.560,0.526,�k�k��,2.6,�L
2023/12/17,15:30,0.511,0.770,0.485,0.965,0.696,0.316,0.560,0.525,�k��,6.5,�L
2023/12/17,15:40,0.510,0.769,0.484,0.963,0.696,0.316,0.560,0.525,�k��,5.0,�L
2023/12/17,15:50,0.510,0.767,0.484,0.965,0.694,0.316,0.560,0.526,�k��,3.9,�L
2023/12/17,16:00,0.509,0.770,0.483,0.966,0.696,0.315,0.558,0.524,���k��,2.9,��
2023/12/17,16:10,0.509,0.770,0.483,0.965,0.694,0.314,0.560,0.525,�k��,2.0,��
2023/12/17,16:20,0.508,0.769,0.484,0.964,0.692,0.315,0.559,0.525,�k��,2.9,��
2023/12/17,16:30,0.509,0.769,0.482,0.963,0.693,0.314,0.560,0.523,�k�k��,3.4,��
2023/12/17,16:40,0.508,0.769,0.481,0.963,0.694,0.313,0.558,0.523,�k��,2.5,��
2023/12/17,16:50,0.507,0.767,0.482,0.962,0.692,0.313,0.559,0.523,�k��,3.6,��
2023/12/17,17:00,0.508,0.768,0.480,0.963,0.691,0.313,0.559,0.523,�k�k��,3.4,��
2023/12/17,17:10,0.509,0.767,0.481,0.964,0.692,0.312,0.558,0.523,�k�k��,3.3,��
2023/12/17,17:20,0.507,0.767,0.481,0.962,0.690,0.312,0.559,0.524,�k�k��,4.4,��
2023/12/17,17:30,0.507,0.768,0.480,0.962,0.689,0.311,0.560,0.523,�k�k��,4.6,��
2023/12/17,17:40,0.508,0.768,0.480,0.963,0.691,0.312,0.559,0.524,�k�k��,4.2,��
2023/12/17,17:50,0.506,0.767,0.482,0.964,0.689,0.312,0.559,0.522,�k�k��,4.4,��
2023/12/17,18:00,0.508,0.769,0.479,0.963,0.690,0.312,0.559,0.524,�k�k��,4.6,��
2023/12/17,18:10,0.507,0.769,0.479,0.962,0.691,0.312,0.557,0.523,�k�k��,5.8,��
2023/12/17,18:20,0.506,0.769,0.480,0.962,0.689,0.309,0.557,0.523,�k��,5.5,��
2023/12/17,18:30,0.506,0.768,0.479,0.961,0.690,0.312,0.558,0.523,���k��,2.3,��
2023/12/17,18:40,0.507,0.768,0.481,0.962,0.692,0.310,0.559,0.523,���k��,3.2,��
2023/12/17,18:50,0.506,0.769,0.479,0.963,0.690,0.310,0.558,0.523,���쐼,2.6,��
2023/12/17,19:00,0.506,0.769,0.480,0.961,0.691,0.310,0.558,0.522,���쐼,2.9,��
2023/12/17,19:10,0.507,0.769,0.478,0.960,0.691,0.311,0.557,0.522,���쐼,2.3,��
2023/12/17,19:20,0.507,0.768,0.480,0.962,0.689,0.311,0.558,0.523,���쐼,2.3,��
2023/12/17,19:30,0.508,0.767,0.479,0.963,0.691,0.311,0.557,0.521,�쐼,1.7,��
2023/12/17,19:40,0.508,0.769,0.479,0.962,0.691,0.311,0.556,0.523,�쐼,1.4,��
2023/12/17,19:50,0.507,0.768,0.480,0.961,0.690,0.311,0.556,0.523,�쐼,1.7,��
2023/12/17,20:00,0.507,0.767,0.478,0.961,0.693,0.310,0.558,0.522,���쐼,2.6,��
2023/12/17,20:10,0.507,0.768,0.479,0.962,0.691,0.311,0.558,0.523,��,2.3,��
2023/12/17,20:20,0.507,0.767,0.480,0.961,0.691,0.312,0.558,0.521,��,2.3,��
2023/12/17,20:30,0.505,0.770,0.480,0.961,0.690,0.309,0.555,0.521,���쐼,3.0,��
2023/12/17,20:40,0.507,0.768,0.479,0.963,0.690,0.311,0.557,0.522,���쐼,3.1,��
2023/12/17,20:50,0.506,0.769,0.478,0.961,0.690,0.312,0.558,0.523,���쐼,3.8,��
2023/12/17,21:00,0.507,0.768,0.479,0.962,0.690,0.310,0.557,0.522,���쐼,3.3,��
2023/12/17,21:10,0.507,0.768,0.479,0.964,0.689,0.311,0.558,0.523,���쐼,4.3,��
2023/12/17,21:20,0.506,0.766,0.480,0.961,0.689,0.311,0.556,0.522,���쐼,4.5,��
2023/12/17,21:30,0.506,0.767,0.480,0.962,0.691,0.310,0.557,0.521,��,5.9,��
2023/12/17,21:40,0.506,0.769,0.480,0.960,0.692,0.311,0.557,0.521,���쐼,4.6,��
2023/12/17,21:50,0.507,0.768,0.479,0.961,0.691,0.311,0.556,0.522,���쐼,2.9,��
2023/12/17,22:00,0.508,0.768,0.479,0.961,0.690,0.309,0.558,0.521,���쐼,3.0,��
2023/12/17,22:10,0.506,0.769,0.479,0.963,0.690,0.309,0.558,0.521,��,3.9,��
2023/12/17,22:20,0.506,0.766,0.479,0.962,0.689,0.312,0.556,0.523,��,2.9,��
2023/12/17,22:30,0.506,0.767,0.480,0.961,0.689,0.310,0.556,0.524,���k��,3.3,��
2023/12/17,22:40,0.507,0.768,0.480,0.962,0.688,0.311,0.557,0.524,���k��,3.7,��
2023/12/17,22:50,0.507,0.767,0.478,0.963,0.689,0.311,0.557,0.521,��,3.5,��
2023/12/17,23:00,0.506,0.767,0.480,0.961,0.690,0.311,0.556,0.522,��,4.5,��
2023/12/17,23:10,0.507,0.769,0.477,0.960,0.690,0.310,0.556,0.522,��,3.8,��
2023/12/17,23:20,0.507,0.769,0.477,0.962,0.691,0.310,0.556,0.522,���k��,4.3,��
2023/12/17,23:30,0.507,0.770,0.478,0.962,0.691,0.309,0.557,0.521,��,5.0,��
2023/12/17,23:40,0.506,0.766,0.479,0.963,0.689,0.310,0.556,0.523,��,4.7,��
2023/12/17,23:50,0.505,0.769,0.478,0.961,0.691,0.309,0.557,0.521,��,4.0,��
